Location: Bouchavesnes-Bergen
(49.9859°N, 2.9203°E)
Time: 02:07:36
(UTC+00:00)

IDEFIX/ARIANE 42P - Pass Details

Date: 30 September 2022
Orbit: 784 x 803 km, 98.5° (Epoch: 06 December)

Event Time Altitude Azimuth Distance (km) Brightness Sun altitude
Rises 01:04:03 0° 23° (NNE) 3,329 6.7 -39.4°
Reaches altitude 10° 01:06:45 10° 35° (NE) 2,393 5.7 -39.2°
Enters shadow 01:09:05 21° 57° (ENE) 1,740 4.8 -39.0°
